Location: Barrio Las Umbrías
(40.4173°N, 4.8685°W)
Time: 12:35:59
(UTC+00:00)

Cosmos 1725 Rocket - Pass Details

Date: 17 August 2022
Orbit: 962 x 990 km, 82.9° (Epoch: 27 September)

Event Time Altitude Azimuth Distance (km) Brightness Sun altitude
Rises 21:28:23 0° 350° (N) 3,694 7.9 -22.8°
Reaches altitude 10° 21:30:54 10° 348° (NNW) 2,746 7.1 -23.1°
Maximum altitude 21:37:09 68° 267° (W) 1,057 4.2 -24.0°
Enters shadow 21:40:13 32° 193° (SSW) 1,634 4.9 -24.4°
